ARKTIKA-M 2

Last updated on Sun Apr 12 2026 00:02:27 GMT+0000 (Coordinated Universal Time)

1 58584U 23198A 26097.47450937 .00000153 00000+0 00000+0 0 9993 2 58584 63.2180 162.2248 6884059 267.6717 18.8419 2.00611065 16901
UTC large
Height (km)
Speed (km/s)
/
Latitude / Longitude
Inclination (degrees)
Orbital Period (minutes)
Azimuth
Elevation
Range (km)
Doppler Factor

Next 0 passes for location: London (51.5072 / 0.1276)

Sorry there are no passes over London.
ARKTIKA-M 2